�������l�o���
Date,Time,MP-1(��Sv/h),MP-2(��Sv/h),MP-3(��Sv/h),MP-4(��Sv/h),MP-5(��Sv/h),MP-6(��Sv/h),MP-7(��Sv/h),MP-8(��Sv/h),����,����(m/s),���J
2020/03/01,00:00,0.690,0.988,0.654,1.211,0.868,0.398,0.695,0.660,���쓌,0.8,��
2020/03/01,00:10,0.690,0.989,0.652,1.212,0.869,0.398,0.695,0.661,-,CALM,��
2020/03/01,00:20,0.691,0.987,0.653,1.211,0.870,0.400,0.696,0.662,-,CALM,��
2020/03/01,00:30,0.689,0.988,0.651,1.211,0.868,0.399,0.695,0.662,�쓌,0.6,��
2020/03/01,00:40,0.689,0.988,0.653,1.210,0.870,0.399,0.697,0.661,-,CALM,��
2020/03/01,00:50,0.689,0.988,0.653,1.213,0.868,0.398,0.697,0.661,-,CALM,��
2020/03/01,01:00,0.689,0.989,0.652,1.213,0.868,0.398,0.696,0.661,���k��,0.6,��
2020/03/01,01:10,0.691,0.987,0.654,1.212,0.870,0.399,0.696,0.661,-,CALM,��
2020/03/01,01:20,0.690,0.987,0.654,1.212,0.867,0.398,0.695,0.661,��쐼,1.2,��
2020/03/01,01:30,0.690,0.990,0.652,1.214,0.870,0.398,0.696,0.660,�쐼,1.7,��
2020/03/01,01:40,0.690,0.987,0.653,1.212,0.867,0.399,0.695,0.661,�쐼,1.7,��
2020/03/01,01:50,0.691,0.989,0.653,1.211,0.868,0.398,0.697,0.662,�쐼,2.0,��
2020/03/01,02:00,0.690,0.988,0.653,1.212,0.867,0.398,0.695,0.660,���쐼,2.0,��
2020/03/01,02:10,0.692,0.987,0.652,1.212,0.868,0.399,0.696,0.661,��,2.2,��
2020/03/01,02:20,0.690,0.987,0.653,1.211,0.867,0.397,0.694,0.661,��쐼,1.8,��
2020/03/01,02:30,0.690,0.990,0.650,1.212,0.868,0.401,0.697,0.663,��,2.6,��
2020/03/01,02:40,0.689,0.987,0.651,1.211,0.868,0.399,0.695,0.661,�쐼,3.6,��
2020/03/01,02:50,0.691,0.989,0.652,1.210,0.868,0.398,0.695,0.663,���쐼,3.1,��
2020/03/01,03:00,0.689,0.988,0.651,1.213,0.868,0.399,0.696,0.663,��쐼,1.2,��
2020/03/01,03:10,0.690,0.991,0.652,1.214,0.869,0.398,0.694,0.662,��,1.2,��
2020/03/01,03:20,0.691,0.989,0.652,1.213,0.867,0.399,0.695,0.660,��쓌,2.0,��
2020/03/01,03:30,0.691,0.986,0.651,1.214,0.867,0.398,0.696,0.661,��쐼,1.8,��
2020/03/01,03:40,0.689,0.986,0.653,1.211,0.870,0.398,0.695,0.663,�쐼,0.6,��
2020/03/01,03:50,0.690,0.988,0.654,1.212,0.866,0.398,0.695,0.662,��,0.8,��
2020/03/01,04:00,0.690,0.987,0.653,1.215,0.867,0.399,0.694,0.661,��,0.9,��
2020/03/01,04:10,0.689,0.988,0.652,1.212,0.867,0.399,0.695,0.660,-,CALM,��
2020/03/01,04:20,0.690,0.987,0.652,1.211,0.868,0.399,0.697,0.662,�k��,2.2,��
2020/03/01,04:30,0.690,0.988,0.653,1.211,0.867,0.399,0.696,0.662,�k�k��,2.3,��
2020/03/01,04:40,0.689,0.988,0.653,1.211,0.866,0.399,0.696,0.661,�k��,1.5,��
2020/03/01,04:50,0.691,0.988,0.653,1.213,0.868,0.399,0.696,0.661,�k�k��,2.3,��
2020/03/01,05:00,0.692,0.987,0.652,1.212,0.870,0.398,0.694,0.662,�k�k��,4.8,��
2020/03/01,05:10,0.692,0.988,0.654,1.214,0.868,0.398,0.694,0.662,�k�k��,8.4,��
2020/03/01,05:20,0.691,0.988,0.652,1.212,0.869,0.399,0.697,0.660,�k��,8.0,��
2020/03/01,05:30,0.691,0.989,0.653,1.212,0.867,0.399,0.696,0.662,�k�k��,6.0,��
2020/03/01,05:40,0.691,0.988,0.654,1.212,0.867,0.399,0.698,0.661,�k�k��,6.4,��
2020/03/01,05:50,0.690,0.988,0.652,1.214,0.867,0.399,0.695,0.662,�k��,7.2,��
2020/03/01,06:00,0.691,0.988,0.655,1.215,0.867,0.400,0.697,0.661,�k��,7.9,��
2020/03/01,06:10,0.691,0.987,0.652,1.213,0.867,0.398,0.696,0.662,�k��,7.5,��
2020/03/01,06:20,0.692,0.988,0.654,1.212,0.865,0.400,0.695,0.662,�k��,5.6,��
2020/03/01,06:30,0.691,0.987,0.652,1.214,0.867,0.398,0.696,0.661,�k��,4.8,��
2020/03/01,06:40,0.692,0.990,0.652,1.212,0.866,0.399,0.700,0.663,�k��,4.6,��
2020/03/01,06:50,0.689,0.988,0.654,1.212,0.869,0.401,0.696,0.663,�k��,6.6,��
2020/03/01,07:00,0.690,0.987,0.653,1.215,0.867,0.399,0.697,0.660,�k��,6.3,��
2020/03/01,07:10,0.691,0.988,0.653,1.212,0.868,0.399,0.697,0.660,�k��,6.5,��
2020/03/01,07:20,0.691,0.990,0.653,1.214,0.868,0.398,0.697,0.662,�k��,7.2,��
2020/03/01,07:30,0.691,0.989,0.651,1.212,0.867,0.398,0.698,0.663,�k��,6.5,��
2020/03/01,07:40,0.691,0.989,0.653,1.212,0.868,0.399,0.697,0.663,���k��,6.6,��
2020/03/01,07:50,0.690,0.988,0.652,1.213,0.868,0.399,0.698,0.663,�k��,5.9,��
2020/03/01,08:00,0.690,0.991,0.653,1.215,0.867,0.399,0.698,0.661,���k��,3.6,��
2020/03/01,08:10,0.693,0.992,0.654,1.216,0.869,0.398,0.698,0.661,���k��,4.7,��
2020/03/01,08:20,0.692,0.989,0.652,1.215,0.870,0.400,0.699,0.663,��,2.8,��
2020/03/01,08:30,0.694,0.989,0.654,1.215,0.869,0.398,0.697,0.662,���k��,3.7,��
2020/03/01,08:40,0.692,0.990,0.653,1.214,0.870,0.398,0.697,0.663,�k��,3.2,��
2020/03/01,08:50,0.691,0.990,0.653,1.213,0.870,0.398,0.697,0.662,���k��,2.8,��
2020/03/01,09:00,0.692,0.991,0.655,1.216,0.869,0.398,0.696,0.662,���k��,1.5,��
2020/03/01,09:10,0.693,0.989,0.655,1.215,0.869,0.401,0.697,0.662,���k��,4.4,��
2020/03/01,09:20,0.693,0.989,0.652,1.216,0.867,0.399,0.696,0.663,���k��,6.9,��
2020/03/01,09:30,0.691,0.989,0.655,1.218,0.868,0.398,0.696,0.663,���k��,6.3,��
2020/03/01,09:40,0.692,0.986,0.654,1.214,0.870,0.400,0.697,0.662,���k��,5.3,��
2020/03/01,09:50,0.694,0.990,0.654,1.218,0.871,0.399,0.695,0.663,���k��,6.6,��
2020/03/01,10:00,0.694,0.988,0.654,1.216,0.871,0.398,0.697,0.664,���k��,7.4,��
2020/03/01,10:10,0.693,0.986,0.652,1.217,0.872,0.398,0.695,0.663,���k��,5.8,��
2020/03/01,10:20,0.692,0.990,0.654,1.216,0.871,0.398,0.697,0.663,���k��,4.9,��
2020/03/01,10:30,0.693,0.990,0.654,1.217,0.872,0.399,0.696,0.663,���k��,4.6,��
2020/03/01,10:40,0.695,0.989,0.654,1.217,0.872,0.400,0.696,0.661,�k��,3.6,��
2020/03/01,10:50,0.696,0.991,0.656,1.214,0.873,0.400,0.696,0.662,�k��,3.9,��
2020/03/01,11:00,0.693,0.991,0.656,1.216,0.875,0.399,0.696,0.661,�k��,3.3,��
2020/03/01,11:10,0.694,0.991,0.655,1.217,0.872,0.400,0.695,0.662,�k��,2.0,��
2020/03/01,11:20,0.693,0.991,0.658,1.219,0.872,0.398,0.698,0.663,���k��,4.8,��
2020/03/01,11:30,0.695,0.990,0.657,1.215,0.872,0.398,0.699,0.661,���k��,4.1,��
2020/03/01,11:40,0.694,0.991,0.657,1.217,0.870,0.396,0.696,0.661,���k��,3.6,��
2020/03/01,11:50,0.694,0.989,0.658,1.218,0.870,0.397,0.697,0.659,���k��,3.8,��
2020/03/01,12:00,0.692,0.990,0.657,1.216,0.871,0.397,0.698,0.661,���k��,4.1,��
2020/03/01,12:10,0.692,0.992,0.657,1.216,0.870,0.400,0.697,0.661,���k��,3.4,��
2020/03/01,12:20,0.694,0.993,0.655,1.218,0.870,0.400,0.695,0.662,�k��,3.3,��
2020/03/01,12:30,0.694,0.990,0.654,1.216,0.871,0.398,0.698,0.663,���k��,4.0,��
2020/03/01,12:40,0.692,0.991,0.654,1.218,0.871,0.401,0.699,0.662,���k��,4.4,��
2020/03/01,12:50,0.693,0.992,0.652,1.217,0.872,0.399,0.698,0.661,���k��,5.0,��
2020/03/01,13:00,0.694,0.993,0.653,1.217,0.868,0.401,0.696,0.662,��,4.3,��
2020/03/01,13:10,0.693,0.991,0.654,1.216,0.870,0.401,0.699,0.662,��,4.1,��
2020/03/01,13:20,0.693,0.992,0.653,1.218,0.873,0.400,0.699,0.661,��,3.5,��
2020/03/01,13:30,0.694,0.994,0.654,1.219,0.872,0.401,0.697,0.662,���쓌,4.3,��
2020/03/01,13:40,0.694,0.995,0.654,1.218,0.871,0.400,0.696,0.662,���쓌,4.8,��
2020/03/01,13:50,0.695,0.993,0.654,1.217,0.870,0.401,0.697,0.661,���쓌,5.0,��
2020/03/01,14:00,0.693,0.993,0.655,1.219,0.870,0.401,0.697,0.659,���쓌,3.3,��
2020/03/01,14:10,0.694,0.996,0.655,1.217,0.870,0.401,0.697,0.659,��,3.6,��
2020/03/01,14:20,0.694,0.994,0.655,1.217,0.875,0.402,0.697,0.661,���쓌,3.7,��
2020/03/01,14:30,0.693,0.993,0.655,1.218,0.875,0.401,0.696,0.662,���쓌,3.8,��
2020/03/01,14:40,0.694,0.995,0.654,1.217,0.873,0.401,0.695,0.661,��,4.6,��
2020/03/01,14:50,0.693,0.993,0.653,1.219,0.871,0.400,0.698,0.662,���쓌,4.3,��
2020/03/01,15:00,0.694,0.994,0.656,1.219,0.873,0.401,0.696,0.660,��,5.1,��
2020/03/01,15:10,0.694,0.996,0.654,1.218,0.873,0.400,0.697,0.659,���쓌,4.2,��
2020/03/01,15:20,0.693,0.996,0.654,1.216,0.873,0.400,0.697,0.660,���쓌,4.5,��
2020/03/01,15:30,0.692,0.996,0.654,1.218,0.874,0.401,0.695,0.661,���쓌,4.9,��
2020/03/01,15:40,0.694,0.998,0.656,1.217,0.872,0.400,0.697,0.660,��,4.6,��
2020/03/01,15:50,0.695,0.998,0.655,1.217,0.875,0.403,0.697,0.660,���쓌,4.8,��
2020/03/01,16:00,0.693,0.999,0.655,1.220,0.874,0.401,0.697,0.659,���쓌,4.3,��
2020/03/01,16:10,0.693,0.998,0.654,1.218,0.875,0.400,0.696,0.662,���쓌,3.8,��
2020/03/01,16:20,0.693,0.999,0.656,1.219,0.873,0.401,0.697,0.663,��,4.4,��
2020/03/01,16:30,0.693,0.999,0.657,1.219,0.872,0.400,0.697,0.665,���쓌,3.7,��
2020/03/01,16:40,0.694,0.998,0.657,1.217,0.874,0.399,0.699,0.664,���쓌,3.4,��
2020/03/01,16:50,0.694,0.997,0.656,1.220,0.872,0.400,0.698,0.663,���쓌,2.6,��
2020/03/01,17:00,0.693,1.000,0.655,1.217,0.873,0.400,0.698,0.664,�쓌,2.6,��
2020/03/01,17:10,0.694,1.000,0.654,1.214,0.872,0.400,0.699,0.665,-,CALM,��
2020/03/01,17:20,0.694,1.001,0.657,1.218,0.875,0.400,0.698,0.664,��,1.2,��
2020/03/01,17:30,0.693,0.996,0.656,1.217,0.876,0.400,0.699,0.663,��,3.2,��
2020/03/01,17:40,0.695,0.997,0.654,1.218,0.876,0.400,0.699,0.662,���k��,5.1,��
2020/03/01,17:50,0.694,0.999,0.657,1.219,0.874,0.402,0.697,0.664,���k��,4.6,��
2020/03/01,18:00,0.694,0.997,0.656,1.220,0.875,0.400,0.698,0.663,�k�k��,4.6,��
2020/03/01,18:10,0.693,0.999,0.656,1.216,0.874,0.401,0.698,0.663,�k�k��,6.8,��
2020/03/01,18:20,0.694,0.997,0.656,1.219,0.876,0.401,0.698,0.664,�k�k��,6.5,��
2020/03/01,18:30,0.694,0.997,0.655,1.218,0.875,0.401,0.698,0.662,�k�k��,7.4,��
2020/03/01,18:40,0.693,0.997,0.655,1.221,0.874,0.400,0.700,0.663,�k�k��,6.3,��
2020/03/01,18:50,0.694,0.997,0.653,1.215,0.873,0.399,0.699,0.663,�k,5.9,��
2020/03/01,19:00,0.693,0.997,0.656,1.216,0.873,0.399,0.698,0.664,�k�k��,5.9,��
2020/03/01,19:10,0.693,0.997,0.655,1.220,0.875,0.398,0.699,0.662,�k�k��,6.0,��
2020/03/01,19:20,0.693,0.995,0.653,1.216,0.873,0.399,0.697,0.664,�k�k��,6.1,��
2020/03/01,19:30,0.692,0.996,0.655,1.218,0.874,0.400,0.697,0.664,�k,4.8,��
2020/03/01,19:40,0.691,0.996,0.655,1.218,0.874,0.399,0.697,0.662,�k,4.6,��
2020/03/01,19:50,0.693,0.998,0.655,1.219,0.873,0.399,0.698,0.663,�k�k��,3.9,��
2020/03/01,20:00,0.693,0.996,0.656,1.220,0.876,0.399,0.697,0.662,�k�k��,4.7,��
2020/03/01,20:10,0.693,0.997,0.654,1.219,0.874,0.399,0.698,0.662,�k,6.4,��
2020/03/01,20:20,0.690,0.999,0.654,1.218,0.876,0.398,0.700,0.662,�k,7.1,��
2020/03/01,20:30,0.691,0.995,0.655,1.218,0.874,0.398,0.697,0.662,�k,7.2,��
2020/03/01,20:40,0.691,0.996,0.655,1.219,0.876,0.398,0.696,0.661,�k,6.4,��
2020/03/01,20:50,0.690,0.996,0.656,1.216,0.874,0.397,0.698,0.663,�k,6.0,��
2020/03/01,21:00,0.693,0.996,0.654,1.219,0.874,0.398,0.696,0.663,�k,6.1,��
2020/03/01,21:10,0.692,0.995,0.655,1.220,0.874,0.397,0.699,0.662,�k,6.9,��
2020/03/01,21:20,0.693,0.996,0.656,1.220,0.873,0.397,0.700,0.663,�k,6.1,��
2020/03/01,21:30,0.692,0.996,0.653,1.214,0.874,0.397,0.698,0.662,�k,5.5,��
2020/03/01,21:40,0.691,0.998,0.654,1.218,0.874,0.399,0.697,0.663,�k,6.1,��
2020/03/01,21:50,0.693,0.997,0.654,1.217,0.873,0.398,0.697,0.662,�k,4.8,��
2020/03/01,22:00,0.691,0.995,0.655,1.218,0.874,0.399,0.698,0.661,�k�k��,6.6,��
2020/03/01,22:10,0.692,0.994,0.656,1.219,0.874,0.399,0.697,0.664,�k,5.6,��
2020/03/01,22:20,0.692,0.997,0.655,1.218,0.874,0.399,0.697,0.662,�k,6.0,��
2020/03/01,22:30,0.692,0.994,0.654,1.215,0.873,0.398,0.697,0.661,�k�k��,5.4,��
2020/03/01,22:40,0.691,0.995,0.652,1.215,0.874,0.397,0.698,0.663,�k�k��,6.0,��
2020/03/01,22:50,0.692,0.994,0.653,1.219,0.874,0.397,0.696,0.661,�k�k��,6.1,��
2020/03/01,23:00,0.691,0.995,0.653,1.217,0.874,0.398,0.697,0.661,�k�k��,6.0,��
2020/03/01,23:10,0.690,0.996,0.653,1.218,0.874,0.397,0.696,0.662,�k�k��,6.2,��
2020/03/01,23:20,0.690,0.994,0.656,1.218,0.874,0.397,0.697,0.661,�k�k��,4.7,��
2020/03/01,23:30,0.690,0.995,0.654,1.219,0.873,0.396,0.698,0.661,�k��,5.2,��
2020/03/01,23:40,0.692,0.994,0.655,1.216,0.873,0.397,0.696,0.664,�k��,4.2,��
2020/03/01,23:50,0.692,0.996,0.656,1.220,0.872,0.398,0.697,0.663,�k�k��,5.1,��
